Tracking 17694 objects as of 30-May-2016
HD Live streaming from Space Station
objects crossing your sky now

INMARSAT 4-F2

Track INMARSAT 4-F2 now!
INMARSAT 4-F2 is classified as:


NORAD ID: 28899
Int'l Code: 2005-044A
Perigee: 35,859.1 km
Apogee: 35,881.1 km
Inclination: 2.5 °
Period: 1,440.0 minutes
Semi major axis: 42241 km
RCS: 4.4668 m2 (large)
Launch date: November 8, 2005
Source: International Mobile Satellite Organization (INMARSAT) (IM)
Launch site: SEA LAUNCH (SEAL)

Nearly the size of a double-decker bus; more than 600 channels.
Your satellite tracking list
Your tracking list is empty





NASA's NSSDC Master Catalog

Two Line Element Set (TLE):
1 28899U 05044A   16150.15375677  .00000006  00000-0  00000+0 0  9998
2 28899   2.5011   6.6222 0002612  65.7780 293.9473  1.00271777 38694
Source of the keplerian elements: AFSPC

N2YO: 585